Location: Cheyres
(46.8153°N, 6.7877°E)
Time: 02:32:12
(UTC+00:00)

X-37B - Pass Details

Date: 11 May 2021
Orbit: 386 x 389 km, 45.0° (Epoch: 10 June)

Event Time Altitude Azimuth Distance (km) Brightness Sun altitude
Rises 19:57:26 0° 275° (W) 2,274 5.5 -9.5°
Reaches altitude 10° 19:59:35 10° 267° (W) 1,417 4.2 -9.8°
Maximum altitude 20:02:35 38° 198° (SSW) 607 1.4 -10.2°
Enters shadow 20:04:40 17° 135° (SE) 1,080 2.2 -10.5°
